Weather History for LGIR - December, 2012

Change the Weather History Date:

Thursday, December 6, 2012

  Actual Average Record
Temperature  
Mean Temperature 58 °F -  
Max Temperature 65 °F 62 °F 75 °F (2008)
Min Temperature 50 °F 51 °F 44 °F (2007)
Degree Days  
Heating Degree Days 8    
Growing Degree Days 8 (Base 50)    
Moisture  
Dew Point 48 °F    
Average Humidity 71    
Maximum Humidity 88    
Minimum Humidity 46    
Precipitation  
Precipitation 0.16 in 0.11 in - ()
Sea Level Pressure  
Sea Level Pressure 29.77 in    
Wind  
Wind Speed 8 mph ()    
Max Wind Speed 16 mph    
Max Gust Speed -    
Visibility 6.2 miles    
Events Rain    
Averages and records for this station are not official NWS values.
T = Trace of Precipitation, MM = Missing Value Source: Averaged Metar Reports

Daily Weather History Graph

Daily Weather History Graph

Search for Another Location

Airport or City:

Trip Planner

Search our weather history database for the weather conditions in past years. The results will help you decide how hot, cold, wet, or windy it might be!

Date:

Astronomy

Dec. 06, 2012 Rise Set
Actual Time 7:14 AM EET 5:06 PM EET
Civil Twilight 6:46 AM EET 5:34 PM EET
Nautical Twilight 6:14 AM EET 6:06 PM EET
Astronomical Twilight 5:43 AM EET 6:37 PM EET
Moon No Moon Rise 12:09 PM EET (12/6)
Length of Visible Light 10h 48m
Length of Day
9h 52m
Waning Gibbous, 52% of the Moon is Illuminated
Dec 6
Waning Gibbous
Dec 6
Last Quarter
Dec 13
New
Dec 20
First Quarter
Dec 28
Full

Hourly Weather History & Observations

Time (EET) Temp. Dew Point Humidity Pressure Visibility Wind Dir Wind Speed Gust Speed Precip Events Conditions
12:20 AM 55.4 °F 46.4 °F 72% 29.74 in 6.2 mi SSW 8.1 mph - N/A   Partly Cloudy
12:50 AM 55.4 °F 42.8 °F 63% 29.74 in 6.2 mi South 10.4 mph - N/A   Partly Cloudy
1:20 AM 55.4 °F 42.8 °F 63% 29.74 in 6.2 mi South 9.2 mph - N/A   Partly Cloudy
1:50 AM 57.2 °F 41.0 °F 55% 29.74 in 6.2 mi SSW 9.2 mph - N/A   Partly Cloudy
2:00 AM 56 °F 41 °F 46% 29.76 in 9 mi SSW 9.2 mph - -   Scattered Clouds
2:20 AM 57.2 °F 41.0 °F 55% 29.74 in 6.2 mi SSW 9.2 mph - N/A   Partly Cloudy
2:50 AM 55.4 °F 42.8 °F 63% 29.74 in 6.2 mi South 6.9 mph - N/A   Partly Cloudy
3:20 AM 55.4 °F 42.8 °F 63% 29.74 in 6.2 mi SSE 8.1 mph - N/A   Partly Cloudy
3:50 AM 55.4 °F 42.8 °F 63% 29.74 in 6.2 mi South 6.9 mph - N/A   Partly Cloudy
4:50 AM 50.0 °F 42.8 °F 76% 29.74 in 6.2 mi South 5.8 mph - N/A   Partly Cloudy
5:20 AM 50.0 °F 42.8 °F 76% 29.74 in 6.2 mi South 5.8 mph - N/A   Partly Cloudy
5:50 AM 50.0 °F 42.8 °F 76% 29.74 in 6.2 mi South 8.1 mph - N/A   Partly Cloudy
6:20 AM 50.0 °F 42.8 °F 76% 29.74 in 6.2 mi South 8.1 mph - N/A   Partly Cloudy
6:50 AM 51.8 °F 44.6 °F 76% 29.74 in 6.2 mi South 4.6 mph - N/A   Partly Cloudy
7:20 AM 53.6 °F 44.6 °F 72% 29.74 in 6.2 mi WSW 8.1 mph - N/A   Partly Cloudy
7:50 AM 59.0 °F 44.6 °F 59% 29.77 in 6.2 mi SW 11.5 mph - N/A   Scattered Clouds
8:00 AM 58 °F 45 °F 53% 29.78 in 6 mi SW 11.5 mph - -   Scattered Clouds
8:20 AM 60.8 °F 46.4 °F 59% 29.77 in 6.2 mi SSW 11.5 mph - N/A   Scattered Clouds
8:50 AM 62.6 °F 46.4 °F 55% 29.77 in 6.2 mi SSW 10.4 mph - N/A   Scattered Clouds
9:20 AM 62.6 °F 46.4 °F 55% 29.77 in 6.2 mi SSW 16.1 mph - N/A   Scattered Clouds
9:50 AM 60.8 °F 46.4 °F 59% 29.77 in 6.2 mi South 13.8 mph - N/A   Scattered Clouds
10:20 AM 60.8 °F 46.4 °F 59% 29.77 in 6.2 mi SW 9.2 mph - N/A   Scattered Clouds
10:50 AM 66.2 °F 48.2 °F 52% 29.77 in 6.2 mi SW 8.1 mph - N/A   Mostly Cloudy
11:20 AM 66.2 °F 48.2 °F 52% 29.77 in 6.2 mi SW 10.4 mph - N/A   Mostly Cloudy
11:50 AM 62.6 °F 50.0 °F 63% 29.77 in 6.2 mi SW 11.5 mph - N/A Rain Light Rain
12:20 PM 62.6 °F 51.8 °F 68% 29.77 in 5.0 mi WSW 15.0 mph - N/A Rain Light Rain
12:50 PM 57.2 °F 53.6 °F 88% 29.77 in 6.2 mi SSW 5.8 mph - N/A   Mostly Cloudy
1:20 PM 57.2 °F 53.6 °F 88% 29.77 in 6.2 mi South 5.8 mph - N/A   Mostly Cloudy
1:50 PM 60.8 °F 55.4 °F 82% 29.77 in 6.2 mi SSW 4.6 mph - N/A   Scattered Clouds
2:00 PM 61 °F 56 °F 77% 29.78 in 6 mi SSW 4.6 mph - - Rain Light Rain
2:20 PM 60.8 °F 55.4 °F 82% 29.77 in 6.2 mi SSE 4.6 mph - N/A   Scattered Clouds
2:50 PM 60.8 °F 53.6 °F 77% 29.77 in 6.2 mi West 8.1 mph - N/A   Scattered Clouds
3:20 PM 60.8 °F 53.6 °F 77% 29.77 in 6.2 mi Calm Calm - N/A   Scattered Clouds
3:50 PM 62.6 °F 53.6 °F 72% 29.77 in 6.2 mi South 6.9 mph - N/A   Mostly Cloudy
4:20 PM 62.6 °F 53.6 °F 72% 29.77 in 6.2 mi South 6.9 mph - N/A   Mostly Cloudy
4:50 PM 59.0 °F 51.8 °F 77% 29.77 in 6.2 mi South 5.8 mph - N/A   Mostly Cloudy
5:20 PM 59.0 °F 51.8 °F 77% 29.77 in 6.2 mi South 5.8 mph - N/A   Mostly Cloudy
5:50 PM 57.2 °F 51.8 °F 82% 29.77 in 6.2 mi SSW 5.8 mph - N/A   Scattered Clouds
6:20 PM 57.2 °F 51.8 °F 82% 29.77 in 6.2 mi SSW 5.8 mph - N/A   Scattered Clouds
6:50 PM 55.4 °F 51.8 °F 88% 29.80 in 6.2 mi SW 6.9 mph - N/A   Partly Cloudy
7:20 PM 55.4 °F 51.8 °F 88% 29.80 in 6.2 mi SSW 6.9 mph - N/A   Partly Cloudy
7:50 PM 53.6 °F 48.2 °F 82% 29.80 in 6.2 mi SSW 6.9 mph - N/A   Partly Cloudy
8:00 PM 54 °F 49 °F 76% 29.82 in 6 mi SSW 6.9 mph - -   Scattered Clouds
8:20 PM 53.6 °F 48.2 °F 82% 29.80 in 6.2 mi South 5.8 mph - N/A   Partly Cloudy
8:50 PM 53.6 °F 46.4 °F 77% 29.80 in 6.2 mi South 8.1 mph - N/A   Partly Cloudy
9:20 PM 53.6 °F 46.4 °F 77% 29.80 in 6.2 mi SSE 11.5 mph - N/A   Partly Cloudy
9:50 PM 53.6 °F 48.2 °F 82% 29.80 in 6.2 mi South 11.5 mph - N/A   Partly Cloudy
10:20 PM 53.6 °F 48.2 °F 82% 29.80 in 6.2 mi South 9.2 mph - N/A   Partly Cloudy
10:50 PM 53.6 °F 46.4 °F 77% 29.80 in 6.2 mi SSW 6.9 mph - N/A   Partly Cloudy
11:20 PM 53.6 °F 46.4 °F 77% 29.80 in 6.2 mi SSW 6.9 mph - N/A   Partly Cloudy
11:50 PM 53.6 °F 46.4 °F 77% 29.80 in 6.2 mi South 8.1 mph - N/A   Partly Cloudy